Location: Ferchesar
(52.6477°N, 12.4298°E)
Time: 19:51:54
(UTC+01:00)

A-11 Canister half - Pass Details

Date: 12 December 2021
Orbit: 1516 x 1684 km, 47.2° (Epoch: 23 January)

Event Time Altitude Azimuth Distance (km) Brightness Sun altitude
Exits shadow 05:16:14 11° 217° (SW) 3,681 10.7 -25.3°
Maximum altitude 05:24:47 44° 150° (SSE) 2,105 9.9 -24.0°
Drops below altitude 10° 05:33:53 10° 83° (E) 3,882 12.1 -22.6°
Sets 05:37:14 0° 78° (ENE) 4,891 12.8 -22.1°
